This demonstration page uses our WeatherBlox Daily Observations layout. Learn more.

36.17497, -115.13722

Hourly Observations for September 17, 2019

Temp ( °F °C ) Dew Point ( °F °C ) Humidity (%) Winds ( mph kmh ) Pressure ( in mb ) Visibility ( mi km ) Precip ( " mm )
12:53 am 00:53 Clear 81 27.2 29 -1.7 15 15 SW 12 19 29.74 1007 10 16.09344 0 0
1:53 am 01:53 Clear 80 26.7 29 -1.7 15 15 S 10 17 29.74 1007 10 16.09344 0 0
2:53 am 02:53 Clear 76 24.4 29 -1.7 18 18 SE 15 24 29.77 1008 10 16.09344 0 0
3:53 am 03:53 Clear 76 24.4 29 -1.7 18 18 SW 9 15 29.8 1009 10 16.09344 0 0
4:53 am 04:53 Clear 74 23.3 33 0.6 22 22 S 22 35 29.8 1009 10 16.09344 0 0
5:53 am 05:53 Clear 77 25 28 -2.2 16 16 WNW 17 28 29.83 1010 10 16.09344 0 0
6:53 am 06:53 Sunny 74 23.3 32 0 21 21 W 13 20 29.88 1012 10 16.09344 0 0
7:53 am 07:53 Sunny 75 23.9 34 1.1 22 22 WNW 14 22 29.91 1013 10 16.09344 0 0
8:53 am 08:53 Sunny 78 25.6 34 1.1 20 20 WNW 15 24 29.91 1013 10 16.09344 0 0
9:53 am 09:53 Sunny 77 25 33 0.6 20 20 VRB 6 9 29.94 1014 10 16.09344 0 0
10:53 am 10:53 Sunny 81 27.2 33 0.6 18 18 VRB 5 7 29.94 1014 10 16.09344 0 0
11:53 am 11:53 Sunny 81 27.2 31 -0.6 16 16 Calm 29.94 1014 10 16.09344 0 0
12:53 pm 12:53 Sunny 83 28.3 32 0 16 16 Calm 29.91 1013 10 16.09344 0 0
1:53 pm 13:53 Sunny 86 30 27 -2.8 12 12 NNE 6 9 29.88 1012 10 16.09344 0 0
2:53 pm 14:53 Sunny 86 30 25 -3.9 11 11 Calm 29.85 1011 10 16.09344 0 0
3:53 pm 15:53 Sunny 88 31.1 23 -5 9 9 undefined N/A 29.83 1010 10 16.09344 0 0
4:53 pm 16:53 Sunny 87 30.6 22 -5.6 9 9 VRB 5 7 29.83 1010 10 16.09344 0 0
5:53 pm 17:53 Sunny 87 30.6 22 -5.6 9 9 SSW 8 13 29.83 1010 10 16.09344 0 0
6:53 pm 18:53 Clear 85 29.4 24 -4.4 11 11 SSW 13 20 29.83 1010 10 16.09344 0 0
7:53 pm 19:53 Clear 83 28.3 26 -3.3 12 12 SW 8 13 29.83 1010 10 16.09344 0 0
8:53 pm 20:53 Clear 81 27.2 33 0.6 18 18 S 6 9 29.83 1010 10 16.09344 0 0
9:53 pm 21:53 Clear 78 25.6 33 0.6 19 19 Calm 29.85 1011 10 16.09344 0 0
10:53 pm 22:53 Clear 77 25 29 -1.7 17 17 WNW 6 9 29.85 1011 10 16.09344 0 0
11:53 pm 23:53 Clear 74 23.3 30 -1.1 20 20 NW 5 7 29.85 1011 10 16.09344 0 0

Powered by AerisWeather